Powrót do katalogu

FENGYUN 1C DEB

AktywnyPO
NORAD 30396·DEBRIS·🇨🇳 China

Wystrzelony May 10, 1999 z Taiyuan Satellite Launch Center

Loading…

Następne Przeloty (najbliższe 24 godziny)

TLE

ŚwieżeSource: Space-Track

Epoka: Sep 14, 2026, 17:17 UTC

1 30396U 99025ADK 26257.72044115  .00000068  00000-0  81835-4 0  9995
2 30396  98.2423 234.8404 0135310  86.5643  87.4520 13.87247249994051

Śledź FENGYUN 1C DEB w czasie rzeczywistym z AllMySat

Download on the App Store